Terminal Aerodrome Forecast
Issued by NWS

Current Version | Previous Version | Graphics & Text | Print | Product List | Glossary On
Versions: 1 2 3 4 5 6 7 8 9 10 11 12 13 14 15 16 17 18 19 20 21 22 23 24 25
000
FTUS41 KPBZ 251100 AAB
TAFHLG
TAF AMD
KHLG 251105Z 2511/2606 23008KT 4SM BR OVC009
     FM251500 VRB03KT 2SM -SN OVC007
     FM251800 03005KT 3/4SM -SN OVC004=

USA.gov is the U.S. government's official web portal to all federal, state and local government web resources and services.